Weather in Miami Platja

Spain     41°00′38″N   0°56′27″E
temp.,
°C
wind,
m/s
gust,
m/s
humid.,
%
clouds,
%
prec.,
mm/h
press.,
hPa
HPBL,
m
11 may, tue
tue1123:00+16w117632 0.1 100921
02:00+16wnw227020 0.1 100925
05:00+15wnw11156165 0.1 1010770
08:00+14wnw14176360 0.1 1011976
11:00+17wnw1315535 0.0 10131375
14:00+18wnw1316390 0.0 10141238
17:00+19wnw1216330 0.0 1015920
20:00+19wnw912385 0.0 1016500
12 may, wed
wed1223:00+16nw23525 0.0 101884
02:00+15w12555 0.0 101871
05:00+15nw224636 0.0 101671
08:00+15nw334649 0.0 101695
11:00+18w684793 0.0 1015432
14:00+19wsw68550 0.0 1014553
17:00+20sw7105186 0.0 1012809
20:00+21wnw7104293 0.0 1012486
13 may, thu
thu1323:00+18wnw91653100 0.0 1014521
02:00+16wnw10175639 0.0 1014606
05:00+14wnw1016625 0.0 1014750
08:00+14wnw8146433 0.0 1015763
11:00+17w8105010 0.0 1014959
14:00+19wsw574846 0.0 1013520
17:00+18ssw796259 0.0 1011796
20:00+17ssw7976100 0.1 1011266
14 may, fri
fri1423:00+18wsw366868 0.2 1011208
02:00+16w347593 0.3 1010115
05:00+16wnw81362100 0.1 1009709
08:00+16wnw1216634 0.1 1010929
11:00+17nw13154728 0.0 10121045
14:00+20wnw1114380 0.0 1012759
17:00+20nw484695 0.0 1012703
20:00+18ne2556100 0.0 1014383
15 may, sat
sat1523:00+16ene3364100 0.0 101686
02:00+16wsw345962 0.0 1016141
05:00+15nnw225113 0.0 101687
08:00+15nne115377 0.0 1016123
11:00+16sse125573 0.0 1016271
14:00+19ssw4552100 0.0 1014474
17:00+19ssw6761100 0.0 1013221
20:00+18sw467959 0.0 1013143